Location: Lecco
(45.8566°N, 9.3977°E)
Time: 12:37:11
(UTC+02:00)

Explorer 11/Cluster Stage 4 - Pass Details

Date: 15 August 2020
Orbit: 467 x 1258 km, 28.8° (Epoch: 24 September)

Event Time Altitude Azimuth Distance (km) Brightness Sun altitude
Rises 23:51:05 0° 242° (WSW) 4,074 10.2 -26.4°
Reaches altitude 10° 23:54:35 10° 228° (SW) 3,178 9.5 -26.6°
Enters shadow 23:55:31 13° 223° (SW) 2,974 9.3 -26.7°
Maximum altitude 00:00:31 23° 181° (S) 2,407 - -27.1°
Drops below altitude 10° 00:06:29 10° 134° (SE) 3,196 - -27.5°
Sets 00:10:00 0° 121° (ESE) 4,103 - -27.7°
